Preview of NWS' New Version of Forecast
This preview is not operational and should not be used for support decisions.

Regional Weather Roundup (RWR)

Issued by National Weather Service (NWS)

                            
000
ASUS44 KMEG 212100
RWRTN 
TENNESSEE HOURLY STATE WEATHER ROUNDUP
NATIONAL WEATHER SERVICE MEMPHIS TN
400 PM CDT SAT SEP 21 2019

TNZ002-004-019-021-049-052-054-088>092-212200-
WEST TENNESSEE
  
CITY           SKY/WX    TMP DP  RH WIND       PRES   REMARKS
MEMPHIS INTL   FAIR      88  59  37 S6        30.12F                  
NWS MEMPHIS      N/A     89 N/A N/A MISG        N/A                   
JACKSON        FAIR      90  59  35 S9        30.15F                  
DYERSBURG      FAIR      90  60  36 S9        30.13F                  
$$

TNZ008-025-027-028-033-062-065-066-212200-
NORTH MIDDLE TENNESSEE
  
CITY           SKY/WX    TMP DP  RH WIND       PRES   REMARKS
NASHVILLE      FAIR      90  49  24 VRB7      30.16F                  
CLARKSVILLE    FAIR      90  56  31 S6        30.14F                  
SMYRNA         FAIR      90  55  30 VRB3      30.17F                  
CROSSVILLE     FAIR      82  54  37 S8        30.25F                  
$$

TNZ061-075-076-078-094-096-097-212200-
SOUTH MIDDLE TENNESSEE
  
CITY           SKY/WX    TMP DP  RH WIND       PRES   REMARKS
$$

TNZ017-018-042-046-047-212200-
NORTHEAST TENNESSEE
  
CITY           SKY/WX    TMP DP  RH WIND       PRES   REMARKS
TRI CITIES     FAIR      87  58  37 CALM      30.23F                  
$$

TNZ012-013-036-069-073-074-212200-
CENTRAL EAST TENNESSEE
  
CITY           SKY/WX    TMP DP  RH WIND       PRES   REMARKS
KNOXVILLE      NOT AVBL                                               
OAK RIDGE      FAIR      87  57  35 CALM      30.22F                  
$$

TNZ083-085-099-212200-
SOUTHEAST TENNESSEE
  
CITY           SKY/WX    TMP DP  RH WIND       PRES   REMARKS
CHATTANOOGA    FAIR      88  55  32 VRB6      30.19F                  
$$

SKY/WX REPORTED AS FAIR MEANS FEW OR NO CLOUDS BELOW
12 THOUSAND FEET.